Voltar ao catálogo

SL-3 R/B

AtivoPO
NORAD 5732·ROCKET BODY·🇷🇺 Russia

Lançado Dec 29, 1971 de Plesetsk Cosmodrome

Loading…

Próximas Passagens (próximas 24 horas)

TLE

AtualizadoSource: Space-Track

Época: Sep 14, 2026, 12:55 UTC

1 05732U 71120B   26257.53824869  .00000159  00000-0  88296-4 0  9997
2 05732  81.2487 100.9014 0050584 268.1181  91.4194 14.06443945805262

Acompanhe SL-3 R/B em tempo real com AllMySat

Download on the App Store